Moriarty, NM

10:34 PM MDT on March 24, 2017 (GMT -0600)
Moriarty

Weather History for K0E0 - February, 2013

Change the Weather History Date:

Monday, February 4, 2013

  Actual Average (KABQ) Record (KABQ)
Temperature  
Mean Temperature 39 °F -  
Max Temperature 56 °F 50 °F 69 °F (1963)
Min Temperature 22 °F 26 °F 4 °F (1939)
Degree Days  
Heating Degree Days 26    
Moisture  
Dew Point 18 °F    
Average Humidity 43    
Maximum Humidity 87    
Minimum Humidity 21    
Precipitation  
Precipitation 0.00 in - - ()
Sea Level Pressure  
Sea Level Pressure 30.05 in    
Wind  
Wind Speed 8 mph (NW)    
Max Wind Speed 16 mph    
Max Gust Speed 21 mph    
Visibility 10 miles    
Events      
Averages and records for this station are not official NWS values.
T = Trace of Precipitation, MM = Missing Value Source: NWS Daily Summary

Daily Weather History Graph

Daily Weather History Graph

Search for Another Location

Airport or City:

Trip Planner

Search our weather history database for the weather conditions in past years. The results will help you decide how hot, cold, wet, or windy it might be!

Date:

Astronomy

Feb. 04, 2013 Rise Set
Actual Time 7:00 AM MST 5:36 PM MST
Civil Twilight 6:33 AM MST 6:02 PM MST
Nautical Twilight 6:03 AM MST 6:32 PM MST
Astronomical Twilight 5:33 AM MST 7:02 PM MST
Moon 1:36 AM MST (2/4) 12:05 PM MST (2/4)
Length of Visible Light 11h 28m
Length of Day
10h 36m
Last Quarter, 36% of the Moon is Illuminated
Feb 4
Last Quarter
Feb 10
New
Feb 17
First Quarter
Feb 25
Full
Mar 4
Last Quarter

Hourly Weather History & Observations

Time (MST) Temp. Windchill Dew Point Humidity Pressure Visibility Wind Dir Wind Speed Gust Speed Precip Events Conditions
12:15 AM 39.7 °F 37.6 °F 25.5 °F 57% 30.01 in 10.0 mi SSW 3.5 mph - N/A   Scattered Clouds
12:35 AM 36.9 °F 28.7 °F 25.0 °F 62% 30.00 in 10.0 mi West 12.7 mph - N/A   Clear
12:55 AM 39.4 °F 31.1 °F 24.8 °F 56% 30.01 in 10.0 mi NW 15.0 mph - N/A   Clear
1:15 AM 36.3 °F 29.5 °F 23.2 °F 59% 30.02 in 10.0 mi NNW 9.2 mph - N/A   Clear
1:35 AM 37.2 °F 28.3 °F 25.2 °F 62% 30.02 in 10.0 mi NNW 15.0 mph - N/A   Clear
1:55 AM 37.6 °F 33.1 °F 24.8 °F 60% 30.02 in 10.0 mi North 5.8 mph - N/A   Clear
2:15 AM 36.3 °F 26.8 °F 25.0 °F 63% 30.01 in 10.0 mi NW 16.1 mph - N/A   Clear
4:15 AM 31.6 °F 23.7 °F 23.0 °F 70% 30.02 in 10.0 mi North 9.2 mph - N/A   Clear
4:35 AM 30.7 °F 26.0 °F 22.6 °F 72% 30.03 in 10.0 mi NW 4.6 mph - N/A   Clear
5:15 AM 27.7 °F 18.8 °F 20.7 °F 75% 30.04 in 10.0 mi NNW 9.2 mph - N/A   Clear
5:55 AM 28.0 °F 24.2 °F 21.9 °F 78% 30.06 in 10.0 mi North 3.5 mph - N/A   Clear
6:15 AM 25.7 °F 20.1 °F 21.0 °F 82% 30.07 in 10.0 mi NE 4.6 mph - N/A   Clear
6:35 AM 25.0 °F 19.3 °F 21.4 °F 86% 30.07 in 10.0 mi NNE 4.6 mph - N/A   Clear
6:55 AM 22.6 °F 15.3 °F 19.4 °F 87% 30.08 in 10.0 mi ENE 5.8 mph - N/A   Clear
7:15 AM 23.7 °F 19.3 °F 20.1 °F 86% 30.08 in 10.0 mi ENE 3.5 mph - N/A   Clear
7:35 AM 25.0 °F 20.7 °F 21.4 °F 86% 30.09 in 10.0 mi North 3.5 mph - N/A   Clear
7:55 AM 28.9 °F 25.2 °F 23.9 °F 81% 30.09 in 10.0 mi North 3.5 mph - N/A   Clear
8:15 AM 32.2 °F 27.7 °F 25.0 °F 75% 30.10 in 10.0 mi North 4.6 mph - N/A   Clear
8:35 AM 36.5 °F 30.3 °F 26.2 °F 66% 30.11 in 10.0 mi NW 8.1 mph - N/A   Clear
8:55 AM 39.6 °F 34.7 °F 26.6 °F 60% 30.11 in 10.0 mi NNW 6.9 mph - N/A   Clear
9:15 AM 41.9 °F 39.0 °F 26.4 °F 54% 30.11 in 10.0 mi North 4.6 mph - N/A   Clear
9:35 AM 43.7 °F 40.3 °F 26.1 °F 50% 30.11 in 10.0 mi North 5.8 mph - N/A   Clear
9:55 AM 46.0 °F 43.9 °F 25.3 °F 44% 30.11 in 10.0 mi North 4.6 mph - N/A   Clear
10:15 AM 46.2 °F 44.1 °F 25.5 °F 44% 30.11 in 10.0 mi NNE 4.6 mph - N/A   Clear
10:35 AM 47.1 °F - 24.8 °F 42% 30.11 in 10.0 mi NNE 4.6 mph - N/A   Clear
10:55 AM 49.1 °F - 23.9 °F 37% 30.11 in 10.0 mi North 6.9 mph - N/A   Clear
11:15 AM 50.0 °F - 23.2 °F 35% 30.11 in 10.0 mi North 6.9 mph - N/A   Clear
11:35 AM 50.4 °F - 22.5 °F 34% 30.10 in 10.0 mi NE 5.8 mph - N/A   Clear
11:55 AM 51.3 °F - 22.5 °F 32% 30.09 in 10.0 mi NNE 8.1 mph - N/A   Clear
12:15 PM 52.9 °F - 21.0 °F 29% 30.08 in 10.0 mi WNW 4.6 mph - N/A   Clear
12:35 PM 53.6 °F - 20.8 °F 28% 30.07 in 10.0 mi West 5.8 mph - N/A   Clear
12:55 PM 54.0 °F - 19.9 °F 26% 30.06 in 10.0 mi NW 8.1 mph - N/A   Clear
1:15 PM 54.3 °F - 20.1 °F 26% 30.05 in 10.0 mi NW 5.8 mph - N/A   Clear
1:35 PM 55.6 °F - 20.7 °F 26% 30.04 in 10.0 mi NW 8.1 mph - N/A   Clear
1:55 PM 55.9 °F - 22.5 °F 27% 30.03 in 10.0 mi WNW 9.2 mph 12.7 mph N/A   Clear
2:15 PM 56.8 °F - 22.6 °F 27% 30.03 in 10.0 mi NW 15.0 mph - N/A   Clear
2:35 PM 56.8 °F - 18.5 °F 22% 30.02 in 10.0 mi WNW 12.7 mph 18.4 mph N/A   Clear
2:55 PM 56.3 °F - 18.9 °F 23% 30.02 in 10.0 mi WNW 12.7 mph 18.4 mph N/A   Clear
3:15 PM 55.8 °F - 18.5 °F 23% 30.02 in 10.0 mi WNW 11.5 mph 20.7 mph N/A   Clear
3:35 PM 55.8 °F - 16.7 °F 22% 30.02 in 10.0 mi West 12.7 mph 18.4 mph N/A   Clear
3:55 PM 54.9 °F - 15.3 °F 21% 30.02 in 10.0 mi West 12.7 mph - N/A   Clear
4:15 PM 54.5 °F - 14.9 °F 21% 30.02 in 10.0 mi West 13.8 mph - N/A   Clear
4:35 PM 53.4 °F - 16.3 °F 23% 30.02 in 10.0 mi West 11.5 mph 18.4 mph N/A   Clear
4:55 PM 51.8 °F - 18.0 °F 26% 30.02 in 10.0 mi West 16.1 mph 19.6 mph N/A   Clear
5:15 PM 50.2 °F - 18.7 °F 29% 30.02 in 10.0 mi West 11.5 mph - N/A   Clear
5:35 PM 48.0 °F - 18.9 °F 31% 30.02 in 10.0 mi West 12.7 mph 17.3 mph N/A   Clear
5:55 PM 46.4 °F 41.1 °F 18.5 °F 33% 30.02 in 10.0 mi West 11.5 mph - N/A   Clear
6:15 PM 43.5 °F 38.3 °F 18.3 °F 36% 30.04 in 10.0 mi West 9.2 mph - N/A   Clear
6:35 PM 43.2 °F 41.5 °F 18.1 °F 37% 30.04 in 10.0 mi WSW 3.5 mph - N/A   Clear
6:55 PM 41.9 °F 36.3 °F 16.5 °F 36% 30.04 in 10.0 mi West 9.2 mph - N/A   Clear
7:15 PM 37.9 °F 30.9 °F 16.3 °F 42% 30.05 in 10.0 mi WNW 10.4 mph - N/A   Clear
7:35 PM 40.6 °F 34.8 °F 12.9 °F 32% 30.05 in 10.0 mi WNW 9.2 mph - N/A   Clear
7:55 PM 41.2 °F 35.5 °F 10.0 °F 28% 30.05 in 10.0 mi West 9.2 mph - N/A   Clear
8:15 PM 39.2 °F 34.2 °F 9.5 °F 29% 30.05 in 10.0 mi West 6.9 mph - N/A   Clear
8:35 PM 37.6 °F 35.1 °F 9.5 °F 31% 30.05 in 10.0 mi NW 3.5 mph - N/A   Clear
8:55 PM 35.8 °F 30.1 °F 8.6 °F 32% 30.06 in 10.0 mi NNW 6.9 mph - N/A   Clear
9:15 PM 38.1 °F 30.2 °F 7.5 °F 28% 30.05 in 10.0 mi NW 12.7 mph - N/A   Clear
9:35 PM 38.8 °F 31.6 °F 6.3 °F 26% 30.05 in 10.0 mi NW 11.5 mph - N/A   Clear
9:55 PM 38.8 °F 31.2 °F 5.7 °F 25% 30.05 in 10.0 mi WNW 12.7 mph - N/A   Clear
10:15 PM 37.8 °F 30.2 °F 5.4 °F 26% 30.05 in 10.0 mi NW 11.5 mph - N/A   Clear
10:35 PM 36.0 °F 29.0 °F 5.2 °F 28% 30.05 in 10.0 mi WNW 9.2 mph - N/A   Clear
10:55 PM 35.6 °F 29.2 °F 5.0 °F 28% 30.05 in 10.0 mi WNW 8.1 mph - N/A   Clear
11:15 PM 33.4 °F 26.6 °F 4.5 °F 30% 30.05 in 10.0 mi NW 8.1 mph - N/A   Clear
11:35 PM 33.8 °F 27.0 °F 4.6 °F 29% 30.05 in 10.0 mi North 8.1 mph - N/A   Clear
11:55 PM 34.9 °F 29.9 °F 3.4 °F 27% 30.05 in 10.0 mi NW 5.8 mph - N/A   Clear